铱星星座 138星 (IRIDIUM 138)

导读 | 星芒AI

IRIDIUM 138 是 Iridium 卫星通信网络中的一颗低轨卫星,属于 Iridium NEXT 项目的一部分。该卫星由 Iridium Communications 拥有并运营,于 2017 年发射,用于提供全球范围内的语音和数据通信服务。IRIDIUM 138 与其他 Iridium 卫星共同构建了一个覆盖全球的星座,支持航空、航海、政府和应急通信等领域。卫星运行在约 780 公里的高度,设计寿命为 15 年,具备抗干扰和高可靠性的特点。

基本信息
目录编号:
43071
目录名称:
IRIDIUM 138
国际标识:
2017-083B
轨道中心:
EARTH
卫星名称:
铱星星座 138星
卫星全名:
铱星星座 138星 (IRIDIUM 138)
卫星状态:
在轨 (已飞行2912 天)
发射日期:
2017-12-23 UTC
国别 :
美国 (US)
星等 :
--
轨道信息
数据来源 国际轨道数据 AOE轨道数据
星历时间 2025-12-13T05:28:47+0800
12小时前
查看轨道信息
2025-12-07T04:00:00+0800
6天前
查看轨道信息
半长轴 7155.804km 7155.798km
偏心率 0.0001783 0.0001837
轨道倾角 86.398° 86.399°
近地点辐角 92.263° 89.804°
升交点赤经 39.546° 42.079°
平近点角 267.877° 312.669°
近地点 776.393km 776.348km
远地点 778.945km 778.978km
周期 100.403分钟 100.403分钟
每日圈数 14.34218 14.342199
详细信息
平衡模式:
三轴稳定
覆盖范围:
全球
运营商:
铱星通信公司
运营商所在国:
美国
制造商(研发单位):
阿莱尼亚宇航公司
制造商所在国:
意大利
使用方式:
暂无
卫星简介
铱星(Iridium)是由共66个运作中的通信卫星组成的卫星通信系统。这个系统原本规划77个通信卫星,所以用原子序数为77的铱元素来命名。铱卫星允许人们使用手持型电子设备进行全球性的语音及数据通讯。该卫星仍在工作。
2D轨道图
3D轨道图
轨道高度分析图
轨道倾角分析图
轨道综合分析图
查看轨道综合分析图